Погода в Тургутлу

Турция     38°29′55″N   27°41′58″E
темп.,
°C
ветер,
м/с
пор.,
м/с
влажн.,
%
обл.,
%
осадки,
мм/ч
давл.,
гПа
погр.,
м
16 июня, ср
ср1600:00+16зюз11604 0.0 101216
03:00+15ю11680 0.0 101212
06:00+14ююз1172100 0.0 101111
09:00+18сз2260100 0.0 1011589
12:00+16сз2274100 0.1 1012359
15:00+20зсз335843 0.1 10131138
18:00+22сз235540 0.1 10131256
21:00+18з01736 0.2 101412
17 июня, чт
чт1700:00+16ю11780 0.0 101611
03:00+16ю11805 0.0 101611
06:00+15вюв11830 0.0 101611
09:00+20св22650 0.0 1017426
12:00+24ссв334910 0.0 10171503
15:00+27с33403 0.0 10161899
18:00+28св133614 0.0 10152036
21:00+23з225612 0.0 101571
18 июня, пт
пт1800:00+20зюз11645 0.0 101617
03:00+19зюз11714 0.0 101513
06:00+18ююв11720 0.0 101511
09:00+23с11550 0.0 1015447
12:00+27с33390 0.0 10141360
15:00+30ссз32310 0.0 10122300
18:00+29ссз75364 0.0 10101171
21:00+22ююз1262100 0.2 101229
19 июня, сб
сб1900:00+21сз116474 0.0 101218
03:00+19юз017591 0.0 101111
06:00+19сз0177100 0.0 101115
09:00+22с22626 0.0 1011539
12:00+27ссз324324 0.0 10101468
15:00+29ссз323531 0.1 10092078
18:00+29ссз653891 0.0 10081673
21:00+23зсз125943 0.0 101046
20 июня, вс
вс2000:00+21зюз117248 0.5 101117
03:00+20зсз117869 0.5 101014
06:00+18з01835 0.0 101112
09:00+23с226586 0.0 1011572
12:00+27ссз3248100 0.0 10101347
15:00+29ссз334098 0.1 10091784
18:00+27ссз784995 0.3 10091216
21:00+23ссв236187 0.5 1010101